, LA

(GMT )
Atlantis

Weather History for KATP - March, 2014

Change the Weather History Date:

Tuesday, March 11, 2014

  Actual Average Record
Temperature  
Mean Temperature 70 °F -  
Max Temperature 73 °F - - ()
Min Temperature 66 °F - - ()
Cooling Degree Days 4    
Growing Degree Days 20 (Base 50)    
Moisture  
Dew Point 65 °F    
Average Humidity 84    
Maximum Humidity 94    
Minimum Humidity 73    
Precipitation  
Precipitation 0.00 in - - ()
Sea Level Pressure  
Sea Level Pressure 29.89 in    
Wind  
Wind Speed 12 mph (SSE)    
Max Wind Speed 26 mph    
Max Gust Speed 37 mph    
Visibility 6 miles    
Events Fog    
Averages and records for this station are not official NWS values.
T = Trace of Precipitation, MM = Missing Value Source: NWS Daily Summary

Daily Weather History Graph

Daily Weather History Graph

Search for Another Location

Airport or City:

Trip Planner

Search our weather history database for the weather conditions in past years. The results will help you decide how hot, cold, wet, or windy it might be!

Date:

Astronomy

Mar. 11, 2014 Rise Set
Actual Time 7:13 AM CDT 7:06 PM CDT
Civil Twilight 6:50 AM CDT 7:29 PM CDT
Nautical Twilight 6:23 AM CDT 7:56 PM CDT
Astronomical Twilight 5:56 AM CDT 8:24 PM CDT
Moon 3:01 PM CDT (3/11) 3:48 AM CDT (3/11)
Length of Visible Light 12h 39m
Length of Day
11h 52m
Waxing Gibbous, 78% of the Moon is Illuminated
Mar 11
Waxing Gibbous
Mar 16
Full
Mar 23
Last Quarter
Mar 30
New
Apr 7
First Quarter

Hourly Weather History & Observations

Time (CDT) Temp. Dew Point Humidity Pressure Visibility Wind Dir Wind Speed Gust Speed Precip Events Conditions
12:15 AM 71.6 °F 68.0 °F 88% 30.02 in 6.0 mi SSE 16.1 mph 23.0 mph N/A   Haze
12:35 AM 71.6 °F 68.0 °F 88% 30.02 in 7.0 mi SSE 11.5 mph 18.4 mph N/A   Overcast
12:55 AM 71.6 °F 68.0 °F 88% 30.02 in 6.0 mi SSE 13.8 mph - N/A   Haze
1:15 AM 71.6 °F 68.0 °F 88% 30.01 in 7.0 mi SE 13.8 mph - N/A   Mostly Cloudy
1:35 AM 71.6 °F 68.0 °F 88% 30.00 in 7.0 mi SE 15.0 mph - N/A   Mostly Cloudy
1:55 AM 71.6 °F 68.0 °F 88% 29.99 in 7.0 mi SE 13.8 mph - N/A   Overcast
2:15 AM 71.6 °F 68.0 °F 88% 29.98 in 7.0 mi SE 13.8 mph - N/A   Mostly Cloudy
2:35 AM 71.6 °F 68.0 °F 88% 29.97 in 7.0 mi SE 16.1 mph - N/A   Overcast
2:55 AM 71.6 °F 68.0 °F 88% 29.95 in - SE 15.0 mph - N/A   Mostly Cloudy
3:15 AM 71.6 °F 68.0 °F 88% 29.94 in 7.0 mi SE 16.1 mph - N/A   Partly Cloudy
3:35 AM 71.6 °F 68.0 °F 88% 29.93 in 7.0 mi SE 15.0 mph 20.7 mph N/A   Clear
3:55 AM 71.6 °F 68.0 °F 88% 29.93 in 7.0 mi SE 12.7 mph - N/A   Clear
4:15 AM 71.6 °F 68.0 °F 88% 29.92 in 7.0 mi SE 16.1 mph - N/A   Clear
4:35 AM 71.6 °F 68.0 °F 88% 29.92 in 7.0 mi SSE 10.4 mph 16.1 mph N/A   Partly Cloudy
4:55 AM 71.6 °F 68.0 °F 88% 29.91 in 6.0 mi SSE 10.4 mph 17.3 mph N/A   Haze
5:15 AM 71.6 °F 68.0 °F 88% 29.91 in 7.0 mi SSE 11.5 mph - N/A   Scattered Clouds
5:35 AM 73.4 °F 68.0 °F 83% 29.91 in 7.0 mi SSE 10.4 mph 18.4 mph N/A   Overcast
5:55 AM 73.4 °F 68.0 °F 83% 29.90 in 7.0 mi South 16.1 mph - N/A   Overcast
6:15 AM 73.4 °F 68.0 °F 83% 29.90 in 7.0 mi SE 15.0 mph - N/A   Overcast
6:35 AM 73.4 °F 68.0 °F 83% 29.90 in 7.0 mi SSE 16.1 mph - N/A   Overcast
6:55 AM 73.4 °F 68.0 °F 83% 29.89 in 7.0 mi SE 18.4 mph - N/A   Mostly Cloudy
7:15 AM 73.4 °F 68.0 °F 83% 29.88 in 7.0 mi SE 17.3 mph - N/A   Mostly Cloudy
7:35 AM 73.4 °F 68.0 °F 83% 29.88 in 8.0 mi SE 16.1 mph 23.0 mph N/A   Mostly Cloudy
7:55 AM 73.4 °F 68.0 °F 83% 29.90 in 6.0 mi SE 18.4 mph - N/A   Haze
8:15 AM 69.8 °F 66.2 °F 88% 29.92 in 0.2 mi South 12.7 mph 36.8 mph N/A   Haze
8:35 AM 69.8 °F 68.0 °F 94% 29.92 in 0.8 mi SSE 16.1 mph - N/A   Overcast
8:55 AM 69.8 °F 66.2 °F 88% 29.93 in 0.8 mi South 11.5 mph 26.5 mph N/A   Overcast
9:15 AM 68.0 °F 66.2 °F 94% 29.94 in 0.5 mi South 11.5 mph 19.6 mph N/A Fog Fog
9:35 AM 68.0 °F 64.4 °F 88% 29.96 in 1.0 mi Variable 3.5 mph - N/A   Overcast
9:55 AM 68.0 °F 64.4 °F 88% 29.96 in 2.0 mi WSW 12.7 mph 18.4 mph N/A   Mostly Cloudy
10:15 AM 66.2 °F 64.4 °F 94% 29.94 in 3.0 mi West 13.8 mph - N/A   Scattered Clouds
10:35 AM 68.0 °F 66.2 °F 94% 29.94 in 3.0 mi West 18.4 mph - N/A   Partly Cloudy
10:55 AM 69.8 °F 66.2 °F 88% 29.94 in 5.0 mi WNW 20.7 mph - N/A   Clear
11:15 AM 68.0 °F 62.6 °F 83% 29.94 in 5.0 mi WNW 24.2 mph - N/A   Haze
11:35 AM 68.0 °F 62.6 °F 83% 29.94 in 3.0 mi West 26.5 mph 32.2 mph N/A   Haze
11:55 AM 68.0 °F 60.8 °F 78% 29.92 in 3.0 mi West 15.0 mph 25.3 mph N/A   Haze
12:15 PM 68.0 °F 60.8 °F 78% 29.87 in 5.0 mi Calm Calm 11.5 mph N/A   Haze
12:35 PM 68.0 °F 60.8 °F 78% 29.89 in 7.0 mi Calm Calm - N/A   Clear
12:55 PM 69.8 °F 62.6 °F 78% 29.88 in 9.0 mi Variable 3.5 mph - N/A   Clear
1:15 PM 69.8 °F 62.6 °F 78% 29.87 in 9.0 mi Variable 5.8 mph 11.5 mph N/A   Clear
1:35 PM 69.8 °F 62.6 °F 78% 29.88 in 6.0 mi Variable 6.9 mph 17.3 mph N/A   Haze
1:55 PM 69.8 °F 62.6 °F 78% 29.88 in 6.0 mi Variable 6.9 mph 19.6 mph N/A   Haze
2:15 PM 68.0 °F 62.6 °F 83% 29.88 in 3.0 mi Variable 5.8 mph 13.8 mph N/A   Haze
2:35 PM 68.0 °F 64.4 °F 88% 29.87 in 3.0 mi Variable 5.8 mph 15.0 mph N/A   Haze
2:55 PM 68.0 °F 62.6 °F 83% 29.84 in 3.0 mi Variable 5.8 mph 13.8 mph N/A   Haze
3:15 PM 68.0 °F 62.6 °F 83% 29.82 in 8.0 mi Variable 8.1 mph 19.6 mph N/A   Partly Cloudy
3:35 PM 68.0 °F 62.6 °F 83% 29.82 in 6.0 mi SSW 9.2 mph 21.9 mph N/A   Haze
3:55 PM 68.0 °F 64.4 °F 88% 29.82 in 6.0 mi SSW 10.4 mph 25.3 mph N/A   Haze
4:15 PM 68.0 °F 64.4 °F 88% 29.79 in 5.0 mi South 11.5 mph 28.8 mph N/A   Haze
4:35 PM 69.8 °F 62.6 °F 78% 29.81 in 7.0 mi Variable 6.9 mph 18.4 mph N/A   Clear
4:55 PM 69.8 °F 62.6 °F 78% 29.80 in 8.0 mi Variable 5.8 mph 12.7 mph N/A   Clear
5:15 PM 71.6 °F 62.6 °F 73% 29.81 in 8.0 mi Variable 4.6 mph 11.5 mph N/A   Clear
5:35 PM 69.8 °F 62.6 °F 78% 29.81 in 8.0 mi Variable 6.9 mph 15.0 mph N/A   Clear
5:55 PM 69.8 °F 62.6 °F 78% 29.81 in 8.0 mi Variable 4.6 mph - N/A   Partly Cloudy
6:15 PM 69.8 °F 62.6 °F 78% 29.82 in 8.0 mi Variable 3.5 mph 12.7 mph N/A   Mostly Cloudy
6:35 PM 69.8 °F 64.4 °F 83% 29.82 in 9.0 mi Calm Calm 11.5 mph N/A   Overcast
6:55 PM 69.8 °F 64.4 °F 83% 29.82 in 8.0 mi Variable 4.6 mph 11.5 mph N/A   Mostly Cloudy
7:15 PM 69.8 °F 62.6 °F 78% 29.82 in 9.0 mi Variable 5.8 mph 17.3 mph N/A   Mostly Cloudy
7:35 PM 69.8 °F 64.4 °F 83% 29.82 in 8.0 mi Variable 4.6 mph 12.7 mph N/A   Mostly Cloudy
7:55 PM 69.8 °F 64.4 °F 83% 29.83 in 8.0 mi Variable 4.6 mph 13.8 mph N/A   Mostly Cloudy
8:15 PM 69.8 °F 64.4 °F 83% 29.83 in 8.0 mi Variable 4.6 mph - N/A   Mostly Cloudy
8:35 PM 69.8 °F 62.6 °F 78% 29.84 in 9.0 mi Variable 4.6 mph 11.5 mph N/A   Mostly Cloudy
8:55 PM 69.8 °F 62.6 °F 78% 29.85 in 9.0 mi Calm Calm - N/A   Scattered Clouds
9:15 PM 69.8 °F 64.4 °F 83% 29.86 in 8.0 mi Variable 3.5 mph - N/A   Mostly Cloudy
9:35 PM 69.8 °F 64.4 °F 83% 29.86 in 8.0 mi Calm Calm - N/A   Mostly Cloudy
9:55 PM 69.8 °F 64.4 °F 83% 29.87 in 8.0 mi Variable 5.8 mph 12.7 mph N/A   Overcast
10:15 PM 71.6 °F 64.4 °F 78% 29.88 in 8.0 mi West 13.8 mph - N/A   Overcast
10:35 PM 71.6 °F 64.4 °F 78% 29.88 in 9.0 mi Variable 4.6 mph 11.5 mph N/A   Scattered Clouds
10:55 PM 69.8 °F 64.4 °F 83% 29.88 in 9.0 mi Variable 4.6 mph 11.5 mph N/A   Mostly Cloudy
11:15 PM 69.8 °F 64.4 °F 83% 29.88 in 8.0 mi Variable 5.8 mph 12.7 mph N/A   Overcast
11:35 PM 69.8 °F 64.4 °F 83% 29.87 in 9.0 mi Variable 3.5 mph - N/A   Mostly Cloudy
11:55 PM 69.8 °F 64.4 °F 83% 29.86 in 9.0 mi Calm Calm - N/A   Partly Cloudy